Omaha, IA

4:13 AM CST on December 13, 2017 (GMT -0600)
Eppley Airfield

Weather History for KOMA - October, 2011

Change the Weather History Date:

Monday, October 3, 2011

  Actual Average Record
Temperature  
Mean Temperature 66 °F 58 °F  
Max Temperature 83 °F 70 °F 96 °F (1938)
Min Temperature 48 °F 46 °F 31 °F (1980)
Degree Days  
Heating Degree Days 0 8  
Month to date heating degree days 10 23  
Since 1 July heating degree days 126 126  
Cooling Degree Days 1 1  
Month to date cooling degree days 1 3  
Year to date cooling degree days 1334 1100  
Growing Degree Days 15 (Base 50)    
Moisture  
Dew Point 42 °F    
Average Humidity 47    
Maximum Humidity 71    
Minimum Humidity 23    
Precipitation  
Precipitation 0.00 in 0.08 in 2.87 in (1884)
Month to date precipitation 0.00 0.25  
Year to date precipitation 25.29 26.04  
Snow  
Snow 0.00 in 0.00 in - ()
Month to date snowfall 0.0 0.0  
Since 1 July snowfall 0.0 0.0  
Snow Depth 0.00 in    
Sea Level Pressure  
Sea Level Pressure 30.15 in    
Wind  
Wind Speed 9 mph (SSE)    
Max Wind Speed 20 mph    
Max Gust Speed 24 mph    
Visibility 10 miles    
Events      
T = Trace of Precipitation, MM = Missing Value Source: NWS Daily Summary

Daily Weather History Graph

Daily Weather History Graph

Search for Another Location

Airport or City:

Trip Planner

Search our weather history database for the weather conditions in past years. The results will help you decide how hot, cold, wet, or windy it might be!

Date:

Astronomy

Oct. 03, 2011 Rise Set
Actual Time 7:22 AM CDT 7:02 PM CDT
Civil Twilight 6:54 AM CDT 7:29 PM CDT
Nautical Twilight 6:22 AM CDT 8:01 PM CDT
Astronomical Twilight 5:50 AM CDT 8:34 PM CDT
Moon 2:24 PM CDT (10/3) No Moon Set
Length of Visible Light 12h 35m
Length of Day
11h 40m
Waxing Crescent, 45% of the Moon is Illuminated
Oct 3
Waxing Crescent
Oct 3
First Quarter
Oct 11
Full
Oct 19
Last Quarter
Oct 26
New

Hourly Weather History & Observations

Time (CDT) Temp. Dew Point Humidity Pressure Visibility Wind Dir Wind Speed Gust Speed Precip Events Conditions
12:52 AM 57.9 °F 42.1 °F 56% 30.16 in 10.0 mi South 5.8 mph - N/A   Clear
1:52 AM 57.2 °F 39.2 °F 51% 30.17 in 10.0 mi SSE 3.5 mph - N/A   Clear
2:52 AM 55.4 °F 39.2 °F 54% 30.18 in 10.0 mi SSE 5.8 mph - N/A   Clear
3:52 AM 54.0 °F 39.9 °F 59% 30.16 in 10.0 mi SE 3.5 mph - N/A   Clear
4:52 AM 52.0 °F 39.9 °F 63% 30.17 in 10.0 mi SSE 3.5 mph - N/A   Clear
5:52 AM 51.1 °F 39.9 °F 66% 30.17 in 10.0 mi SE 4.6 mph - N/A   Clear
6:52 AM 48.0 °F 39.9 °F 74% 30.17 in 10.0 mi SE 6.9 mph - N/A   Clear
7:52 AM 51.1 °F 39.0 °F 63% 30.19 in 10.0 mi ESE 3.5 mph - N/A   Clear
8:52 AM 55.0 °F 42.1 °F 62% 30.19 in 10.0 mi SSE 4.6 mph - N/A   Clear
9:52 AM 60.1 °F 42.1 °F 51% 30.20 in 10.0 mi SE 6.9 mph - N/A   Clear
10:52 AM 66.9 °F 44.1 °F 44% 30.20 in 10.0 mi SSE 9.2 mph - N/A   Clear
11:52 AM 73.0 °F 45.0 °F 37% 30.18 in 10.0 mi South 10.4 mph - N/A   Clear
12:52 PM 78.8 °F 44.6 °F 30% 30.17 in 10.0 mi SSE 17.3 mph 20.7 mph N/A   Clear
1:52 PM 80.1 °F 43.0 °F 27% 30.13 in 10.0 mi SSE 13.8 mph - N/A   Clear
2:52 PM 81.0 °F 42.1 °F 25% 30.11 in 10.0 mi SSE 12.7 mph 21.9 mph N/A   Clear
3:52 PM 82.9 °F 41.0 °F 23% 30.09 in 10.0 mi SSE 15.0 mph 23.0 mph N/A   Clear
4:52 PM 82.9 °F 42.1 °F 24% 30.09 in 10.0 mi South 16.1 mph - N/A   Clear
5:52 PM 81.0 °F 42.1 °F 25% 30.09 in 10.0 mi SE 11.5 mph - N/A   Clear
6:52 PM 72.0 °F 45.0 °F 38% 30.10 in 10.0 mi SE 8.1 mph - N/A   Clear
7:52 PM 68.0 °F 45.0 °F 43% 30.11 in 10.0 mi SE 8.1 mph - N/A   Partly Cloudy
8:52 PM 64.9 °F 44.1 °F 47% 30.12 in 10.0 mi SE 8.1 mph - N/A   Partly Cloudy
9:52 PM 63.0 °F 43.0 °F 48% 30.12 in 10.0 mi SSE 8.1 mph - N/A   Clear
10:52 PM 64.9 °F 42.1 °F 43% 30.12 in 10.0 mi SSE 10.4 mph - N/A   Clear
11:52 PM 63.0 °F 42.1 °F 46% 30.12 in 10.0 mi SSE 10.4 mph - N/A   Clear